Tracking 19846 objects as of 20-Sep-2019
HD Live streaming from Space Station
objects crossing your sky now

FLOCK 2E-8


FLOCK 2E-8 is no longer on orbit
FLOCK 2E-8 is classified as:


NORAD ID: 41566
Int'l Code: 1998-067JQ
Perigee: N/A
Apogee: N/A
Inclination: N/A
Period: N/A
Semi major axis: N/A
RCS: N/A
Launch date: November 20, 1998
Source: United States (US)
Launch site: TYURATAM MISSILE AND SPACE COMPLEX (TTMTR)
Decay date: 2017-07-25
aabbcc
Your satellite tracking list
Your tracking list is empty




NASA's NSSDC Master Catalog

Two Line Element Set (TLE):
1 41566U 98067JQ  17206.27883464 +.05984292 +12224-4 +68643-3 0  9994
2 41566 051.6005 150.4905 0008863 238.1798 121.8364 16.35919912066078
Source of the keplerian elements: AFSPC